Regional Weather Roundup
Issued by NWS

Home | Current Version | Previous Version | Graphics & Text | Print | Product List | Glossary On
Versions: 1 2 3 4 5 6 7 8 9 10 11 12 13 14 15 16 17 18 19 20 21 22 23 24 25 26 27 28 29 30 31 32 33 34 35 36 37 38 39 40 41 42 43 44 45 46 47 48 49 50
000
ASUS43 KMPX 302101
RWRMN
WEATHER ROUNDUP FOR MINNESOTA
NATIONAL WEATHER SERVICE TWIN CITIES/CHANHASSEN MN
400 PM CDT SUN APR 30 2017


NOTE: "FAIR" INDICATES FEW OR NO CLOUDS BELOW 12,000 FEET WITH NO
SIGNIFICANT WEATHER AND/OR OBSTRUCTIONS TO VISIBILITY. N/A MEANS
CURRENT SKY AND/OR WEATHER CONDITIONS ARE NOT AVAILABLE.

MNZ060>063-068>070-302200-
   Twin Cities Metro

CITY           SKY/WX    TMP DP  RH WIND       PRES   REMARKS
TWIN CITIES    CLOUDY    47  33  58 NE15G24   29.86F
ST PAUL        CLOUDY    47  35  63 NE21      29.87F
CRYSTAL        CLOUDY    46  31  55 NE14G24   29.86F
BLAINE         CLOUDY    48  36  61 NE20G25   29.86F
LAKEVILLE      CLOUDY    45  36  70 NE16G24   29.82F
EDEN PRAIRIE   CLOUDY    46  34  62 NE16G22   29.84F
SOUTH ST PAUL  CLOUDY    46  34  62 NE12G17   29.85F
LAKE ELMO      CLOUDY    46  36  66 NE15G22   29.86F
$$
MNZ001>005-007-008-013>017-022>024-027-028-302200-
   Northwest Minnesota

CITY           SKY/WX    TMP DP  RH WIND       PRES   REMARKS
BEMIDJI        MOSUNNY   56  22  26 E15       29.94F
HALLOCK        SUNNY     63  19  19 SE7G17    29.96F
ROSEAU         SUNNY     61  25  25 E16       29.98F
WARROAD        SUNNY     54  28  37 NE14      30.00F
THIEF RVR FALL SUNNY     58  17  20 NE17      29.96F
CROOKSTON      SUNNY     61  21  21 E13G18    29.95F
FOSSTON        SUNNY     63  19  19 E13       29.94S
DETROIT LAKES  MOSUNNY   54  23  30 E9G16     29.92F
MOORHEAD       PTSUNNY   61  16  17 E14G21    29.92S
PARK RAPIDS    CLOUDY    55  17  22 E16       29.92F
MAHNOMEN       FAIR      57  23  26 E9        29.91F
$$
MNZ006-009>011-018-025>026-302200-
   North Central Minnesota

CITY           SKY/WX    TMP DP  RH WIND       PRES   REMARKS
BAUDETTE       SUNNY     59  20  22 E9        29.98F
FLAG ISLAND    SUNNY     54  21  28 S5        30.00F
INTL FALLS     SUNNY     57  23  26 E14G22    29.99F
WASKISH        CLOUDY    61  27  27 E14G20    29.95F
BIG FORK       CLOUDY    57  21  24 E12G20    29.96F
LONGVILLE      MOSUNNY   54  23  30 NE6       29.94F
GRAND RAPIDS   CLOUDY    53  22  29 E8G17     29.97F
CRANE LAKE     CLOUDY    54  16  22 NE6       30.04F
ORR            PTSUNNY   55  12  18 E6G17     29.97F
COOK           PTSUNNY   55  21  26 E8G16     30.00F
WALKER         FAIR      52  24  33 E12       29.95F
$$
MNZ012-019>021-037-302200-
   Northeast Minnesota

CITY           SKY/WX    TMP DP  RH WIND       PRES   REMARKS
DULUTH         CLOUDY    45  26  47 E20G32    30.00F
ELY            MOSUNNY   52  16  24 E10       30.01F
HIBBING        CLOUDY    52  22  30 E14G22    29.98F
EVELETH        CLOUDY    53   8  15 E14       30.00F
DULUTH HARBOR  PTSUNNY   39  36  87 NE22      30.03F
TWO HARBORS    CLOUDY    46  30  53 E17G26    30.02F
SILVER BAY     CLOUDY    45  28  53 E12G18    30.04F
GRAND MARAIS     N/A     42  32  67 E10G17    30.07F
G MARAIS ARPRT CLOUDY    43  18  36 NE13      30.06F
$$
MNZ029>031-032-039>041-046>048-054>057-064-302200-
   West Central Minnesota

CITY           SKY/WX    TMP DP  RH WIND       PRES   REMARKS
FERGUS FALLS   PTSUNNY   54  25  32 E12G22    29.89F
WHEATON        CLOUDY    54  21  28 E16       29.90F
MORRIS         CLOUDY    52  28  40 E20G29    29.86F
ALEXANDRIA     CLOUDY    50  26  39 E20G30    29.88F
ELBOW LAKE     FAIR      51  26  38 SE18G24   29.89F
WADENA         CLOUDY    52  25  35 NE14G23   29.91F
GLENWOOD       CLOUDY    48  28  46 NE26G36   29.87F
APPLETON       LGT RAIN  48  34  57 E20G29    29.85F
BENSON         LGT RAIN  50  27  40 E18G29    29.88F
ORTONVILLE     CLOUDY    52  28  40 E21       29.86F
MADISON        DRIZZLE   48  37  66 NE18G28   29.86F
WILLMAR        DRIZZLE   46  36  66 NE17      29.86F
$$
MNZ033>034-036-042>043-049>051-058-059-302200-
   Central Minnesota

CITY           SKY/WX    TMP DP  RH WIND       PRES   REMARKS
ST CLOUD       CLOUDY    47  30  51 NE20G36   29.89F
SAUK CENTRE    CLOUDY    47  29  49 NE17G30   29.89F
PAYNESVILLE    CLOUDY    48  30  50 NE23G29   29.88F
AITKIN         CLOUDY    54  21  28 E15G26    29.93F
PINE RIVER     CLOUDY    52  28  40 E10G16    29.96F
BRAINERD       CLOUDY    50  23  34 E12G25    29.93F
STAPLES        CLOUDY    52  21  30 E10G22    29.91F
LONG PRAIRIE   CLOUDY    46  28  49 NE20G30   29.89F
LITTLE FALLS   CLOUDY    48  27  43 NE12G26   29.91F
LITCHFIELD     CLOUDY    46  34  61 NE17G23   29.87F
BUFFALO        CLOUDY    45  32  60 NE17G23   29.89S
MAPLE LAKE     CLOUDY    47  32  56 NE14      29.89F
HUTCHINSON     CLOUDY    45  36  70 NE18G30   29.85F
$$
MNZ037-044-045-052-053-302200-
   East Central Minnesota

CITY           SKY/WX    TMP DP  RH WIND       PRES   REMARKS
PRINCETON      CLOUDY    46  30  53 NE12G25   29.90F
MORA           CLOUDY    45  32  61 NE12G21   29.95F
CAMBRIDGE      CLOUDY    48  34  57 NE12G20   29.88F
RUSH CITY      CLOUDY    47  31  54 NE10G24   29.91F
MOOSE LAKE     CLOUDY    45  28  53 NE10G17   29.96F
HINCKLEY       CLOUDY    45  32  61 NE13G26   29.93F
CLOQUET        CLOUDY    45  21  39 NE14G30   29.98F
MCGREGOR       CLOUDY    50  27  40 E18G29    29.96F
$$
MNZ071>073-080-081-089-090-097-098-302200-
   Southwest Minnesota

CITY           SKY/WX    TMP DP  RH WIND       PRES   REMARKS
MONTEVIDEO     DRIZZLE   45  37  76 E18G26    29.84F
GRANITE FALLS  CLOUDY    46  40  78 NE15G30   29.85F
CANBY          LGT RAIN  45  39  80 NE16      29.86F
MARSHALL       LGT RAIN  42  37  82 NE17G29   29.82F
REDWOOD FALLS  LGT RAIN  44  34  67 NE15G26   29.82F
OLIVIA         CLOUDY    43  36  75 NE21G28   29.82F
PIPESTONE      LGT RAIN  39  34  81 NE22G31   29.74F
WINDOM         CLOUDY    39  37  93 NE22      29.77S
WORTHINGTON    CLOUDY    37  36  96 NE28G38   29.73F
JACKSON        CLOUDY    37  37 100 NE29      29.73F
TRACY          CLOUDY    41  37  84 NE21G29   29.80F
SLAYTON        CLOUDY    37  35  90 NE21G30   29.77F
$$
MNZ065>067-074>077-082>085-091>093-302200-
   South Central Minnesota

CITY           SKY/WX    TMP DP  RH WIND       PRES   REMARKS
MANKATO        CLOUDY    44  37  76 NE17G29   29.80F
NEW ULM        CLOUDY    43  36  75 NE18G26   29.80F
ST JAMES       CLOUDY    43  37  81 NE21      29.79F
FAIRMONT       CLOUDY    42  37  82 NE20      29.76F
FARIBAULT      CLOUDY    45  36  70 NE22G31   29.79F
OWATONNA       CLOUDY    45  36  70 NE22G29   29.78F
WASECA         CLOUDY    43  34  70 NE18G29   29.79S
ALBERT LEA     CLOUDY    43  36  75 E26       29.75S
$$
MNZ078>079-086>088-094>096-302200-
   Southeast Minnesota

CITY           SKY/WX    TMP DP  RH WIND       PRES   REMARKS
ROCHESTER      CLOUDY    43  37  79 NE21G35   29.77F
RED WING       CLOUDY    48  32  53 E12G17    29.82F
STANTON        CLOUDY    47  35  64 NE18G24   29.81F
DODGE CENTER   CLOUDY    45  36  70 NE23G29   29.77F
WINONA         CLOUDY    46  37  71 E8G17     29.84S
AUSTIN         CLOUDY    43  36  75 E16G32    29.77R
PRESTON        CLOUDY    42  36  80 NE14G28   29.78F
$$
ABBREVIATIONS USED IN REMARKS
   TC - TEMPERATURES IN CELSIUS
  WCI - WIND CHILL INDEX
   HX - HEAT INDEX
  VSB - VISIBILITY
$$



USA.gov is the U.S. government's official web portal to all federal, state and local government web resources and services.